ICEYE-X11 (48918 NORAD) Tracking and Keplerian Element Data

This shows tracking and keplerian element data for the satellite.

Feedback or suggestion? Click here.




ElementValue
Catalog48918
NameICEYE-X11
Epoch Orbit20042
Epoch Day35.13959823
Epoch Year2025
RAAN192.2237
Inclination97.6429
Eccentricity0.0011998
Argument of Perigee356.3981
Mean Anonmoly3.7175
Mean Motion15.37579749
Decay Rate0.00032483
L11 48918U 21059AR 25035.13959823 .00032483 00000+0 87848-3 0 9999
L22 48918 97.6429 192.2237 0011998 356.3981 3.7175 15.37579749200426



Live tracking and technical data element details for ICEYE-X11 (NORAD 48918). ICEYE-X11 can be tracked NOW for your location showing map with azimuth and elevation plus other details from your city location.







IsCatalogInMostPopularTable: catalog: 48918, numindb: 132
Update: records affected: 1



GetName: 48918 ICEYE-X11

Hit Count: updated at: Wed, 18 Jun 2025 06:26:18 GMT